Flag for U.S.A. Weather past 2 weeks in Antioch, California, U.S.A.

Now
73 °F

Clear.


Feels Like: 77 °F
Forecast: 60 / 86 °F
Wind: 9 mph from Southwest

Location: Buchanan Field

Current Time: Aug 31, 2015 at 9:56:16 PM

Latest Report: Aug 31, 2015 at 8:53 PM


Visibility: 10 mi

Pressure: 29.80 "Hg

Humidity: 46%

Dew point: 51 °F

Location of AntiochLocation

Historic Weather in Antioch — Graph

°F

Antioch temperature yesterday

Maximum temperature yesterday: 85 °F (at 3:53 PM)
Minimum temperature yesterday: 62 °F (at 5:53 AM)
Average temperature yesterday: 73 °F

Past Weeks' High & Low Weather Summary

 TemperatureHumidityPressure
High101 °F (Aug 17, 4:53 PM)87% (Aug 29, 10:53 AM)30.00 "Hg (Aug 29, 10:53 AM)
Low58 °F (Aug 25, 4:53 AM)10% (Aug 17, 4:53 PM)29.72 "Hg (Aug 17, 4:53 PM)
Average73 °F54%29.88 "Hg
* Reported Aug 16 7:53 PM — Aug 31 7:53 PM, Antioch, Weather by CustomWeather, © 2015

Note: Actual official high and low records may vary slightly from our data, if they occured in-between our weather recording intervals... More about our weather records

Advertising

Antioch weather history for previous 24 hours

 ConditionsComfort  
Time TempWeatherWind HumidityBarometerVisibility
7:53 PM
Mon, Aug 31
76 °FSunny.6 mph35%29.79 "Hg10 mi
6:53 PM81 °FSunny.12 mph28%29.78 "Hg10 mi
5:53 PM86 °FSunny.12 mph25%29.78 "Hg10 mi
4:53 PM89 °FSunny.15 mph24%29.79 "Hg10 mi
3:53 PM90 °FSunny.12 mph23%29.80 "Hg10 mi
2:53 PM90 °FSunny.13 mph28%29.81 "Hg10 mi
1:53 PM87 °FSunny.13 mph35%29.84 "Hg10 mi
12:53 PM86 °FSunny.N/A31%29.85 "Hg10 mi
11:53 AM83 °FSunny.3 mph32%29.87 "Hg10 mi
10:53 AM79 °FSunny.5 mph41%29.88 "Hg10 mi
9:53 AM74 °FSunny.3 mph52%29.89 "Hg10 mi
8:53 AM70 °FSunny.7 mph59%29.89 "Hg10 mi
7:53 AM66 °FSunny.8 mph68%29.89 "Hg10 mi
6:53 AM64 °FClear.9 mph73%29.88 "Hg10 mi
5:53 AM64 °FClear.9 mph73%29.87 "Hg10 mi
4:53 AM65 °FClear.10 mph73%29.87 "Hg10 mi
3:53 AM65 °FClear.9 mph73%29.87 "Hg10 mi
2:53 AM66 °FClear.8 mph70%29.87 "Hg10 mi
1:53 AM66 °FClear.7 mph70%29.87 "Hg10 mi
12:53 AM68 °FClear.6 mph63%29.88 "Hg10 mi
11:53 PM
Sun, Aug 30
69 °FClear.6 mph55%29.88 "Hg10 mi
10:53 PM71 °FClear.7 mph51%29.88 "Hg10 mi
9:53 PM72 °FClear.9 mph49%29.89 "Hg10 mi
Weather by CustomWeather, © 2015

See weather overviewHow to use our weather pages